When you browse on this site, cookies collect data to enhance your experience and personalize the content and advertising you see.
Visit our Privacy Policy to learn more. By continuing to use the site, you agree to this use of cookies and data.
  • In United Kingdom
  • List of Countries
  • For 7 days
  • Water Temperature
  • Satellite Maps
  • Weather Map
  • Weather Widgets
  • user-avatar
    Login

    Hourly Weather Maceio

    Today, 17 November, Saturday

    Time Temperature Precipitation Wind Pressure Humidity
    00:00 +25°C° 0 mm 4 mps 760 mmHg 93%
    01:00 +25°C° 0 mm 4 mps 760 mmHg 94%
    02:00 +23°C° 0.1 mm 4 mps 759 mmHg 95%
    03:00 +23°C° 0.1 mm 4 mps 759 mmHg 95%
    04:00 +24°C° 0.1 mm 3 mps 759 mmHg 95%
    05:00 +25°C° 0.1 mm 3 mps 759 mmHg 92%
    06:00 +25°C° 0.1 mm 3 mps 760 mmHg 89%
    07:00 +26°C° 0.1 mm 3 mps 760 mmHg 87%
    08:00 +28°C° 0 mm 3 mps 760 mmHg 75%
    09:00 +32°C° 0 mm 4 mps 760 mmHg 63%
    10:00 +34°C° 0 mm 5 mps 760 mmHg 51%
    11:00 +35°C° 0 mm 5 mps 760 mmHg 50%
    12:00 +35°C° 0 mm 5 mps 760 mmHg 48%
    13:00 +36°C° 0 mm 5 mps 760 mmHg 46%
    14:00 +35°C° 0 mm 5 mps 759 mmHg 48%
    15:00 +35°C° 0 mm 6 mps 759 mmHg 50%
    16:00 +35°C° 0 mm 6 mps 758 mmHg 52%
    17:00 +33°C° 0 mm 5 mps 759 mmHg 60%
    18:00 +30°C° 0 mm 5 mps 759 mmHg 69%
    19:00 +28°C° 0 mm 4 mps 759 mmHg 78%
    20:00 +27°C° 0.1 mm 4 mps 760 mmHg 82%
    21:00 +27°C° 0.1 mm 4 mps 760 mmHg 86%
    22:00 +26°C° 0.1 mm 4 mps 761 mmHg 90%
    23:00 +26°C° 0.1 mm 4 mps 761 mmHg 91%

    Tomorrow, 18 November, Sunday

    Time Temperature Precipitation Wind Pressure Humidity
    00:00 +26°C° 0.1 mm 4 mps 760 mmHg 92%
    01:00 +26°C° 0.1 mm 4 mps 760 mmHg 92%
    02:00 +25°C° 0.1 mm 4 mps 760 mmHg 93%
    03:00 +25°C° 0.1 mm 4 mps 759 mmHg 94%
    04:00 +25°C° 0.1 mm 5 mps 759 mmHg 95%
    05:00 +26°C° 0.1 mm 5 mps 759 mmHg 92%
    06:00 +26°C° 0.1 mm 5 mps 759 mmHg 90%
    07:00 +27°C° 0.1 mm 5 mps 759 mmHg 88%
    08:00 +28°C° 0.1 mm 6 mps 760 mmHg 79%
    09:00 +30°C° 0.1 mm 6 mps 760 mmHg 70%
    10:00 +33°C° 0.1 mm 6 mps 761 mmHg 61%
    11:00 +33°C° 0 mm 6 mps 760 mmHg 59%
    12:00 +33°C° 0 mm 6 mps 760 mmHg 58%
    13:00 +33°C° 0 mm 5 mps 760 mmHg 56%
    14:00 +33°C° 0 mm 5 mps 759 mmHg 55%
    15:00 +33°C° 0 mm 5 mps 758 mmHg 54%
    16:00 +34°C° 0 mm 5 mps 758 mmHg 52%
    17:00 +32°C° 0 mm 5 mps 758 mmHg 60%
    18:00 +29°C° 0 mm 4 mps 758 mmHg 68%
    19:00 +27°C° 0 mm 4 mps 759 mmHg 76%
    20:00 +27°C° 0 mm 4 mps 759 mmHg 79%
    21:00 +26°C° 0 mm 4 mps 760 mmHg 83%
    22:00 +26°C° 0 mm 4 mps 760 mmHg 86%
    23:00 +25°C° 0.1 mm 4 mps 760 mmHg 87%

    Day after tomorrow, 19 November, Monday

    Time Temperature Precipitation Wind Pressure Humidity
    00:00 +25°C° 0.1 mm 4 mps 760 mmHg 89%
    01:00 +25°C° 0.1 mm 4 mps 759 mmHg 90%
    02:00 +25°C° 0.1 mm 4 mps 759 mmHg 90%
    03:00 +25°C° 0.1 mm 4 mps 758 mmHg 91%
    04:00 +25°C° 0.1 mm 3 mps 758 mmHg 91%
    05:00 +25°C° 0.1 mm 3 mps 758 mmHg 88%
    06:00 +26°C° 0.1 mm 3 mps 759 mmHg 86%
    07:00 +27°C° 0.1 mm 3 mps 759 mmHg 83%
    08:00 +28°C° 0.2 mm 4 mps 760 mmHg 74%
    09:00 +30°C° 0.2 mm 5 mps 760 mmHg 65%
    10:00 +33°C° 0.2 mm 5 mps 760 mmHg 57%
    11:00 +33°C° 0 mm 5 mps 760 mmHg 54%
    12:00 +34°C° 0 mm 5 mps 759 mmHg 52%
    13:00 +34°C° 0 mm 5 mps 759 mmHg 50%
    14:00 +34°C° 0 mm 5 mps 758 mmHg 49%
    15:00 +34°C° 0 mm 5 mps 757 mmHg 49%
    16:00 +35°C° 0 mm 5 mps 757 mmHg 49%
    17:00 +33°C° 0 mm 5 mps 757 mmHg 57%
    18:00 +30°C° 0 mm 4 mps 757 mmHg 65%
    19:00 +28°C° 0 mm 4 mps 758 mmHg 73%
    20:00 +27°C° 0 mm 4 mps 758 mmHg 77%
    21:00 +26°C° 0 mm 4 mps 759 mmHg 81%
    22:00 +26°C° 0 mm 3 mps 759 mmHg 86%
    23:00 +26°C° 0.1 mm 4 mps 759 mmHg 87%

    20 November, Tuesday

    Time Temperature Precipitation Wind Pressure Humidity
    00:00 +25°C° 0.1 mm 4 mps 759 mmHg 87%
    01:00 +25°C° 0.1 mm 5 mps 759 mmHg 88%
    02:00 +25°C° 0.2 mm 5 mps 759 mmHg 90%
    03:00 +25°C° 0.2 mm 5 mps 758 mmHg 91%
    04:00 +26°C° 0.2 mm 5 mps 758 mmHg 92%
    05:00 +26°C° 0.1 mm 5 mps 759 mmHg 89%
    06:00 +26°C° 0.1 mm 5 mps 759 mmHg 87%
    07:00 +27°C° 0.1 mm 5 mps 760 mmHg 85%
    08:00 +29°C° 0.1 mm 5 mps 760 mmHg 76%
    09:00 +30°C° 0.1 mm 5 mps 760 mmHg 67%
    10:00 +33°C° 0.1 mm 6 mps 760 mmHg 58%
    11:00 +34°C° 0 mm 6 mps 760 mmHg 53%
    12:00 +35°C° 0 mm 6 mps 760 mmHg 49%
    13:00 +36°C° 0 mm 6 mps 759 mmHg 45%
    14:00 +35°C° 0.1 mm 6 mps 759 mmHg 48%
    15:00 +34°C° 0.1 mm 6 mps 758 mmHg 52%
    16:00 +34°C° 0.1 mm 6 mps 758 mmHg 55%
    17:00 +32°C° 0 mm 6 mps 758 mmHg 63%
    18:00 +29°C° 0 mm 5 mps 759 mmHg 71%
    19:00 +28°C° 0 mm 5 mps 759 mmHg 78%
    20:00 +27°C° 0.2 mm 5 mps 759 mmHg 82%
    21:00 +27°C° 0.2 mm 5 mps 760 mmHg 86%
    22:00 +26°C° 0.2 mm 5 mps 760 mmHg 91%
    23:00 +26°C° 0.4 mm 5 mps 760 mmHg 91%

    21 November, Wednesday

    Time Temperature Precipitation Wind Pressure Humidity
    00:00 +26°C° 0.4 mm 5 mps 760 mmHg 92%
    01:00 +26°C° 0.4 mm 5 mps 759 mmHg 93%
    02:00 +26°C° 0.2 mm 5 mps 759 mmHg 94%
    03:00 +25°C° 0.2 mm 5 mps 759 mmHg 94%
    04:00 +25°C° 0.2 mm 5 mps 758 mmHg 95%
    05:00 +26°C° 0.1 mm 5 mps 759 mmHg 93%
    06:00 +26°C° 0.1 mm 5 mps 759 mmHg 91%
    07:00 +27°C° 0.1 mm 5 mps 759 mmHg 88%
    08:00 +28°C° 0.2 mm 6 mps 760 mmHg 83%
    09:00 +29°C° 0.2 mm 6 mps 760 mmHg 77%
    10:00 +30°C° 0.2 mm 7 mps 760 mmHg 71%
    11:00 +32°C° 0.2 mm 7 mps 760 mmHg 68%
    12:00 +32°C° 0.2 mm 7 mps 760 mmHg 65%
    13:00 +33°C° 0.2 mm 7 mps 759 mmHg 61%
    14:00 +33°C° 0.1 mm 7 mps 759 mmHg 60%
    15:00 +33°C° 0.1 mm 7 mps 758 mmHg 59%
    16:00 +33°C° 0.1 mm 7 mps 758 mmHg 58%
    17:00 +32°C° 0.1 mm 6 mps 758 mmHg 66%
    18:00 +29°C° 0.1 mm 6 mps 759 mmHg 73%
    19:00 +27°C° 0.1 mm 6 mps 759 mmHg 81%
    20:00 +27°C° 0.1 mm 6 mps 759 mmHg 84%
    21:00 +26°C° 0.1 mm 6 mps 760 mmHg 87%
    22:00 +26°C° 0.1 mm 5 mps 760 mmHg 90%
    23:00 +26°C° 0.1 mm 5 mps 760 mmHg 90%

    22 November, Thursday

    Time Temperature Precipitation Wind Pressure Humidity
    00:00 +26°C° 0.1 mm 5 mps 759 mmHg 91%
    01:00 +26°C° 0.1 mm 5 mps 759 mmHg 91%
    02:00 +25°C° 0.1 mm 5 mps 759 mmHg 91%
    03:00 +25°C° 0.1 mm 5 mps 759 mmHg 91%
    04:00 +25°C° 0.1 mm 5 mps 758 mmHg 91%
    05:00 +26°C° 0.1 mm 5 mps 759 mmHg 89%
    06:00 +26°C° 0.1 mm 5 mps 759 mmHg 87%
    07:00 +27°C° 0.1 mm 5 mps 759 mmHg 85%
    08:00 +28°C° 0.1 mm 5 mps 759 mmHg 77%
    09:00 +29°C° 0.1 mm 6 mps 759 mmHg 70%
    10:00 +32°C° 0.1 mm 6 mps 760 mmHg 62%
    11:00 +33°C° 0 mm 6 mps 759 mmHg 58%
    12:00 +33°C° 0 mm 5 mps 759 mmHg 54%
    13:00 +34°C° 0 mm 5 mps 758 mmHg 50%
    14:00 +34°C° 0 mm 5 mps 758 mmHg 51%
    15:00 +33°C° 0 mm 5 mps 757 mmHg 52%
    16:00 +33°C° 0 mm 5 mps 757 mmHg 53%
    17:00 +32°C° 0.1 mm 5 mps 757 mmHg 61%
    18:00 +29°C° 0.1 mm 5 mps 758 mmHg 68%
    19:00 +27°C° 0.1 mm 5 mps 758 mmHg 76%
    20:00 +27°C° 0.1 mm 5 mps 758 mmHg 80%
    21:00 +26°C° 0.1 mm 5 mps 759 mmHg 84%
    22:00 +26°C° 0.1 mm 5 mps 759 mmHg 88%
    23:00 +26°C° 0.2 mm 5 mps 758 mmHg 89%
    Show more